Tracking 25648 objects as of 17-May-2022
HD Live streaming from Space Station
objects crossing your sky now

HAWK-3B

Track HAWK-3B now!
10-day predictions


NORAD ID: 48931
Int'l Code: 2021-059BE
Perigee: 517.0 km
Apogee: 538.0 km
Inclination: 97.5 °
Period: 95.0 minutes
Semi major axis: 6898 km
RCS: Unknown
Launch date: June 30, 2021
Source: United States (US)
Launch site: AIR FORCE EASTERN TEST RANGE (AFETR)
aabbcc
Your satellite tracking list
Your tracking list is empty




NASA's NSSDC Master Catalog

Two Line Element Set (TLE):
1 48931U 21059BE  22137.34735986  .00004732  00000-0  25480-3 0  9990
2 48931  97.5362 267.1752 0015229 209.1720 150.8663 15.15214841 49261
Source of the keplerian elements: AFSPC